Date,TemperatureHighF,TemperatureAvgF,TemperatureLowF,DewpointHighF,DewpointAvgF,DewpointLowF,HumidityHigh,HumidityAvg,HumidityLow,PressureMaxIn,PressureMinIn,WindSpeedMaxMPH,WindSpeedAvgMPH,GustSpeedMaxMPH,PrecipitationSumIn
2013-1-1,27.5,18.7,4.1,22.1,4.3,-8.2,82,54,29,29.49,29.25,15,4,32,0.01
2013-1-2,21.7,6.5,-3.3,1.9,-10.0,-19.5,61,46,30,29.66,29.45,14,4,24,0.00
2013-1-3,23.0,7.7,-3.6,-1.0,-10.1,-19.0,58,44,26,29.70,29.55,9,3,17,0.00
2013-1-4,41.2,23.8,7.0,23.3,12.6,-6.3,77,62,46,29.54,29.35,11,2,15,0.00
2013-1-5,31.3,24.9,14.7,23.5,11.5,2.8,89,57,41,29.88,29.37,16,4,28,0.02
2013-1-6,41.9,23.6,13.1,23.0,12.3,2.7,86,62,43,29.85,29.55,7,1,8,0.00
2013-1-7,32.4,22.3,11.8,21.0,10.7,0.1,88,63,31,30.00,29.58,9,2,14,0.00
2013-1-8,46.9,27.7,14.5,22.8,14.6,2.9,71,58,36,30.00,29.82,10,2,12,0.00
2013-1-9,38.5,30.4,23.2,28.0,22.5,17.3,80,72,62,30.03,29.55,13,2,21,0.00
2013-1-10,43.2,34.9,26.2,31.6,23.9,15.9,93,64,52,30.15,29.57,25,5,34,0.08
2013-1-11,36.9,28.3,20.1,29.5,19.1,14.0,95,69,48,30.15,29.89,8,2,12,0.00
2013-1-12,38.5,34.6,30.9,36.4,33.5,29.7,99,96,88,29.90,29.76,8,1,11,0.01
2013-1-13,40.5,35.1,32.0,39.1,34.5,31.8,99,98,90,29.81,29.60,8,1,15,0.01
2013-1-14,61.9,41.4,32.4,55.4,33.5,18.9,99,76,46,29.88,29.49,12,3,21,0.01
2013-1-15,41.2,30.8,25.3,22.7,16.8,12.3,63,56,43,29.95,29.86,8,2,17,0.00
2013-1-16,27.1,25.0,23.0,21.9,18.9,13.8,87,78,62,29.89,29.42,6,1,8,0.00
2013-1-17,36.1,21.2,9.3,26.0,5.2,-19.6,90,56,23,29.74,29.41,14,3,24,0.04
2013-1-18,20.1,8.5,0.9,-11.1,-19.8,-30.6,36,26,19,29.98,29.71,14,3,17,0.00
2013-1-19,33.8,20.3,9.3,18.2,10.1,-14.5,78,65,32,29.93,29.50,8,2,11,0.13
2013-1-20,46.4,26.5,15.3,34.5,15.8,-0.1,86,65,36,29.50,29.10,16,3,23,0.01
2013-1-21,26.8,14.1,6.3,5.0,-7.0,-14.6,68,40,20,29.64,29.46,14,2,23,0.00
2013-1-22,21.9,15.6,7.3,6.5,-2.7,-9.7,68,45,28,29.49,29.41,11,3,17,0.00
2013-1-23,7.0,-3.9,-9.2,-24.3,-30.0,-35.4,36,27,20,29.67,29.60,12,3,18,0.00
2013-1-24,11.8,2.2,-7.8,-17.7,-23.2,-34.7,42,29,20,29.75,29.54,18,6,31,0.19
2013-1-25,14.9,8.1,-1.8,-10.0,-16.0,-20.6,43,32,25,29.80,29.68,16,3,28,0.11
2013-1-26,21.9,12.5,7.3,-8.3,-14.4,-20.7,47,29,20,29.73,29.63,14,5,27,0.12
2013-1-27,24.4,12.3,5.0,-5.4,-12.4,-18.4,51,33,20,30.03,29.74,11,5,24,0.00
2013-1-28,23.7,19.1,10.2,-8.5,-12.6,-21.8,27,23,21,30.01,29.87,4,2,7,0.00
2013-1-29,39.2,28.5,11.5,28.2,19.9,-9.6,95,71,22,29.87,29.76,3,0,6,0.11
2013-1-30,48.9,39.3,29.5,48.5,38.4,28.2,99,97,94,29.78,29.18,13,4,21,0.06
2013-1-31,52.7,35.6,24.1,52.2,22.3,4.9,99,60,42,29.18,28.53,14,6,31,0.19
2013-2-1,26.4,18.1,10.4,5.2,-0.3,-5.4,51,44,33,29.64,29.08,18,4,27,0.00
2013-2-2,20.7,13.8,6.4,7.5,-2.1,-9.5,75,49,31,29.76,29.63,11,2,15,0.00
2013-2-3,31.1,16.9,5.7,11.5,4.7,-0.8,77,60,35,29.67,29.35,8,1,11,0.00
2013-2-4,27.3,17.7,10.4,8.0,1.7,-12.6,66,50,26,29.44,29.28,12,3,22,0.00
2013-2-5,29.1,13.4,5.2,-2.5,-11.2,-18.9,52,33,19,29.62,29.48,8,2,16,0.00
2013-2-6,36.3,17.8,8.1,18.5,2.6,-14.1,71,52,26,29.88,29.55,11,2,21,0.00
2013-2-7,21.9,10.2,3.2,-11.0,-17.9,-23.7,40,27,19,30.16,29.88,12,3,23,0.00
2013-2-8,12.9,8.7,4.1,5.7,-1.8,-21.5,76,63,23,30.14,29.59,10,2,14,0.00
2013-2-9,14.9,11.6,8.8,7.0,2.0,-5.5,78,65,49,29.79,29.42,21,8,28,0.00
2013-2-10,38.7,20.5,8.6,4.9,-5.5,-15.0,51,32,19,29.99,29.78,12,3,18,0.00
2013-2-11,28.6,20.3,8.1,23.8,10.8,-6.4,91,68,27,29.96,29.24,8,1,11,0.00
2013-2-12,40.5,33.2,25.0,30.4,25.9,22.0,96,75,61,29.45,29.20,13,3,21,0.17
2013-2-13,43.5,32.5,28.8,25.5,20.6,18.4,70,61,46,29.48,29.41,10,2,17,0.00
2013-2-14,45.1,30.7,24.6,22.9,17.0,12.7,68,57,41,29.65,29.37,10,2,23,0.00
2013-2-15,49.3,33.6,23.2,28.5,20.4,13.6,70,59,45,29.64,29.53,11,2,17,0.00
2013-2-16,34.5,31.1,28.0,26.4,21.7,17.8,89,69,51,29.60,29.56,6,1,9,0.00
2013-2-17,21.4,14.5,10.0,5.2,-0.9,-7.6,60,50,39,29.44,28.94,26,8,42,1.24
2013-2-18,28.4,15.3,6.1,0.5,-8.3,-15.6,46,35,21,29.68,29.14,24,7,35,0.39
2013-2-19,42.8,26.3,15.1,29.6,1.7,-15.0,96,40,20,29.74,29.26,11,2,14,0.00
2013-2-20,38.5,27.9,22.1,31.6,19.8,11.2,99,73,52,29.30,29.12,0,0,0,0.13
2013-2-21,22.5,18.6,11.8,12.0,4.9,-0.8,64,54,43,29.49,29.29,10,2,16,0.00
2013-2-22,32.5,22.3,18.3,17.4,8.9,-0.5,61,56,43,29.94,29.28,8,3,14,0.14
2013-2-23,32.2,28.4,24.4,29.1,22.2,14.3,96,78,61,29.93,29.60,6,1,9,0.00
2013-2-24,30.7,27.7,25.5,27.3,24.5,22.2,95,88,84,29.61,29.40,3,0,5,0.00
2013-2-25,46.0,30.2,25.2,30.3,24.7,20.6,89,80,52,29.84,29.51,5,0,8,0.45
2013-2-26,44.6,33.7,25.2,30.0,25.1,19.9,87,71,47,29.96,29.84,6,1,8,0.00
2013-2-27,32.2,29.4,27.1,29.0,25.7,21.1,95,86,76,29.84,29.33,12,2,19,0.00
2013-2-28,34.7,29.7,27.1,33.8,28.3,24.9,98,94,91,29.33,29.21,8,1,11,0.00
2013-3-1,34.9,30.9,28.9,27.2,26.3,24.3,91,83,65,29.30,29.17,8,2,10,0.02
2013-3-2,39.9,30.8,27.1,27.6,24.6,22.3,90,78,58,29.30,29.24,11,3,15,0.06
2013-3-3,42.6,31.7,26.6,28.9,23.6,18.5,89,72,55,29.26,29.18,11,3,14,0.06
2013-3-4,34.0,27.1,25.2,20.9,17.5,15.4,73,67,55,29.37,29.15,14,4,21,0.00
2013-3-5,43.9,34.4,26.8,31.4,25.3,17.3,83,69,54,29.74,29.37,11,4,19,0.00
2013-3-6,38.3,31.2,28.0,30.4,26.0,18.9,93,81,63,29.87,29.74,11,4,18,0.06
2013-3-7,33.3,29.5,26.8,21.0,19.2,17.5,70,65,58,29.84,29.72,14,5,24,0.00
2013-3-8,45.0,35.2,27.3,21.7,18.1,14.0,69,51,30,29.84,29.67,14,7,20,0.00
2013-3-9,59.7,40.1,27.7,22.5,18.1,12.5,65,43,21,29.99,29.81,11,4,15,0.00
2013-3-10,51.3,35.5,24.1,30.2,24.8,17.2,92,67,43,29.99,29.87,11,2,14,0.00
2013-3-11,49.3,37.4,29.1,36.1,31.6,27.6,97,81,56,29.88,29.72,8,2,14,0.00
2013-3-12,44.8,40.0,35.4,44.0,39.3,33.9,99,97,90,29.73,29.37,8,3,14,1.32
2013-3-13,45.1,35.9,30.4,43.0,29.1,24.4,99,77,62,29.37,29.32,8,2,14,0.02
2013-3-14,39.4,26.8,14.2,25.0,15.8,-1.0,83,63,48,29.36,29.25,14,3,27,0.00
2013-3-15,43.0,22.8,11.3,20.8,6.7,-1.6,82,51,24,29.37,29.19,14,3,21,0.00
2013-3-16,38.5,25.1,18.1,20.7,10.2,4.9,81,54,30,29.49,29.24,11,3,16,0.00
2013-3-17,31.5,19.3,14.2,7.5,0.6,-9.8,63,45,25,29.87,29.47,17,4,26,0.00
2013-3-18,41.5,24.1,9.9,14.5,-1.1,-9.1,62,34,19,29.99,29.84,11,2,14,0.00
2013-3-19,27.7,24.5,21.2,22.2,19.3,14.5,93,81,62,29.84,29.43,9,3,14,0.00
2013-3-20,40.5,26.5,16.2,24.8,20.1,13.2,94,78,47,29.32,29.21,11,3,17,0.13
2013-3-21,49.3,31.1,17.6,21.0,13.4,8.9,78,51,23,29.34,29.21,9,2,12,0.00
2013-3-22,42.1,29.4,23.2,21.3,15.5,11.2,72,56,36,29.27,29.21,11,3,17,0.00
2013-3-23,38.5,28.7,22.5,25.5,18.0,12.8,74,64,48,29.27,29.13,14,4,26,0.00
2013-3-24,47.5,34.8,29.3,28.2,24.3,22.4,77,66,47,29.42,29.30,7,4,16,0.00
2013-3-25,43.2,34.3,23.0,29.2,25.0,18.8,88,69,54,29.41,29.23,8,3,11,0.00
2013-3-26,50.9,37.5,28.2,28.7,24.1,18.7,75,59,39,29.38,29.22,8,4,14,0.00
2013-3-27,46.9,37.3,32.2,33.2,28.4,22.3,99,71,52,29.51,29.33,10,4,14,0.05
2013-3-28,55.9,38.6,31.5,39.5,33.4,29.3,99,83,54,29.62,29.51,4,1,8,0.09
2013-3-29,55.0,42.4,37.8,37.9,31.3,28.8,86,65,47,29.64,29.58,7,2,14,0.00
2013-3-30,56.5,47.8,35.1,30.2,22.4,15.9,77,41,22,29.67,29.62,12,3,16,0.00
2013-3-31,53.2,40.3,25.2,33.5,22.8,14.7,80,52,28,29.71,29.44,8,2,14,0.00
2013-4-1,53.2,38.1,28.0,41.9,33.5,14.3,99,85,56,29.44,29.12,7,2,11,0.48
2013-4-2,36.5,28.0,21.4,18.4,13.6,10.1,78,55,38,29.40,29.31,14,4,21,0.00
2013-4-3,34.0,29.0,23.7,18.1,12.4,8.5,77,50,42,29.44,29.38,15,4,27,0.00
2013-4-4,51.6,38.8,18.3,16.9,10.2,-0.5,52,32,21,29.94,29.41,11,5,17,4.98
2013-4-5,55.2,44.5,34.3,30.7,26.2,21.5,64,49,32,29.68,29.46,9,3,14,0.00
2013-4-6,41.4,33.2,19.8,18.1,7.9,1.2,71,37,25,29.99,29.59,11,4,19,0.00
2013-4-7,50.4,41.1,25.3,35.1,27.1,6.1,81,58,36,30.04,29.66,14,5,21,0.00
2013-4-8,52.2,44.3,40.6,37.5,35.8,33.7,83,72,54,29.84,29.63,14,4,24,0.00
2013-4-9,48.7,40.4,36.0,44.4,37.7,31.1,99,90,68,29.85,29.67,4,1,7,0.28
2013-4-10,54.5,43.4,37.0,47.0,39.8,35.9,99,88,62,29.75,29.66,6,1,13,0.19
2013-4-11,49.3,44.4,36.1,39.7,22.6,12.0,99,45,27,29.81,29.64,10,3,14,0.01
2013-4-12,33.8,30.7,28.4,30.1,23.4,13.6,99,76,49,29.98,29.66,4,1,6,0.09
2013-4-13,48.7,37.6,28.8,40.1,34.2,28.5,99,88,67,29.66,29.56,4,1,5,0.37
2013-4-14,51.4,44.2,33.3,42.0,36.5,29.9,99,76,54,29.82,29.62,11,3,21,0.05
2013-4-15,62.4,51.4,31.1,38.8,34.1,27.4,87,53,35,30.10,29.94,11,4,16,0.00
2013-4-16,57.6,49.1,34.3,49.9,41.3,33.8,99,76,57,30.11,29.76,11,5,18,0.07
2013-4-17,61.3,54.3,41.2,51.5,34.9,29.4,97,49,33,30.01,29.75,15,5,21,0.01
2013-4-18,53.4,44.1,30.6,36.1,27.3,19.6,70,52,39,30.18,30.01,11,4,18,0.00
2013-4-19,74.5,64.4,44.4,59.9,55.3,36.5,95,73,58,29.83,29.42,17,7,24,0.00
2013-4-20,61.2,51.2,41.0,60.6,36.8,27.6,99,60,38,29.77,29.36,14,4,20,0.46
2013-4-23,45.0,35.9,24.8,38.7,32.8,23.6,99,89,73,30.38,29.99,5,1,9,0.00
2013-4-24,74.3,52.2,37.9,57.6,47.5,37.7,99,86,55,29.95,29.54,6,3,11,0.07
2013-4-25,60.8,51.3,41.7,49.8,37.0,27.1,99,61,36,30.04,29.51,11,3,14,0.00
2013-4-26,60.1,46.0,30.2,36.7,30.9,23.6,80,58,35,30.17,30.05,7,2,11,0.00
2013-4-27,68.2,50.3,34.7,42.0,36.3,32.1,92,63,30,30.16,30.03,8,2,8,0.00
2013-4-28,70.9,52.8,33.3,42.5,37.1,31.4,96,59,34,30.09,29.98,8,3,12,0.00
2013-4-29,63.7,55.1,38.3,43.3,39.7,34.0,85,57,44,30.01,29.97,9,2,12,0.00
2013-4-30,74.8,56.3,37.0,47.5,40.5,34.2,99,60,35,30.13,29.99,8,2,11,0.00
2013-5-1,78.6,60.6,38.5,45.6,38.5,31.8,83,47,27,30.21,30.12,9,2,12,0.00
2013-5-2,74.7,55.3,42.3,49.0,41.3,33.0,83,61,34,30.27,30.15,5,2,9,0.00
2013-5-3,72.0,53.8,33.6,49.5,41.9,31.2,96,66,44,30.29,30.13,4,2,8,0.00
2013-5-4,74.7,54.9,40.3,48.2,41.1,30.8,99,67,21,30.13,30.02,8,2,12,0.00
2013-5-5,75.0,63.4,35.2,46.9,42.4,33.1,98,50,32,30.07,29.98,11,4,13,0.61
2013-5-8,77.4,63.3,46.9,60.5,56.3,46.7,99,80,51,29.99,29.89,10,3,14,0.01
2013-5-9,69.3,59.1,54.3,61.0,57.5,53.5,99,95,74,29.88,29.68,4,1,7,0.21
2013-5-10,76.8,63.9,53.6,63.0,58.0,52.8,99,83,56,29.73,29.67,5,2,7,0.00
2013-5-11,63.0,57.3,51.8,62.1,56.7,51.3,99,98,96,29.68,29.46,7,2,8,1.24
2013-5-12,66.9,55.9,41.7,59.4,51.4,33.7,99,86,59,29.49,29.34,4,1,9,0.11
2013-5-13,57.0,45.7,34.5,36.8,32.6,29.0,82,62,42,29.78,29.49,13,3,14,0.00
2013-5-14,60.1,50.9,34.7,37.0,32.9,29.8,83,51,42,29.78,29.73,11,4,17,0.00
2013-5-15,66.2,55.2,35.6,47.4,38.0,26.7,99,57,31,29.77,29.47,15,4,25,0.15
2013-5-17,67.3,53.7,46.2,46.1,42.8,40.6,86,68,44,29.98,29.59,9,3,14,0.00
2013-5-18,69.8,53.8,36.9,51.3,44.5,36.1,99,74,40,30.08,29.97,4,1,7,0.00
2013-5-19,61.7,50.0,38.1,53.5,45.7,-8.3,99,88,10,30.11,29.97,103,4,103,0.11
2013-5-20,76.5,59.1,47.8,64.5,54.9,47.6,99,87,60,29.96,29.72,4,2,12,0.34
2013-5-21,59.4,52.6,48.4,56.7,52.1,48.1,99,98,91,29.83,29.73,6,2,10,0.59
2013-5-22,57.4,51.4,47.3,54.6,50.5,47.0,99,97,86,29.77,29.67,4,2,9,0.19
2013-5-23,72.5,63.8,48.2,65.9,61.3,47.9,99,92,77,29.70,29.57,9,3,14,0.08
2013-5-24,70.2,58.4,45.7,65.4,57.5,44.9,99,97,85,29.64,29.44,7,3,13,1.28
2013-5-25,47.1,43.7,38.5,46.9,43.2,38.2,99,98,97,29.64,29.49,6,4,9,1.48
2013-5-26,55.9,47.4,37.8,46.1,42.1,37.5,99,83,66,29.67,29.44,11,4,19,0.27
2013-5-27,68.5,53.3,37.0,45.5,41.0,34.7,97,66,39,29.93,29.74,9,3,22,0.00
2013-5-28,74.8,65.1,37.6,52.4,44.8,37.3,99,51,33,29.99,29.94,10,2,14,0.00
2013-5-29,55.6,51.5,46.4,55.3,49.6,40.5,99,94,63,29.96,29.77,3,0,4,0.19
2013-5-30,87.8,69.9,52.0,67.8,61.4,51.4,99,77,46,29.84,29.75,8,2,11,0.01
2013-5-31,93.4,85.5,60.3,72.9,68.7,60.0,99,59,46,29.85,29.73,8,3,15,0.00
2013-6-1,94.1,81.0,65.1,73.5,67.6,63.5,96,66,42,29.74,29.64,8,3,14,0.04
2013-6-2,92.5,84.9,65.7,75.8,71.3,64.5,97,65,50,29.63,29.46,15,5,19,0.05
2013-6-11,58.5,55.0,52.7,57.1,54.2,52.2,99,97,91,29.81,29.37,7,1,9,1.04
2013-6-12,60.3,55.7,52.2,57.9,54.7,51.6,99,97,92,29.59,29.33,4,1,8,0.21
2013-6-13,74.1,62.0,50.0,59.9,54.5,49.2,99,78,54,29.57,29.51,2,1,4,0.00
2013-6-14,79.3,63.7,50.9,59.1,54.2,50.6,99,75,43,29.57,29.47,4,1,8,0.01
2013-6-15,76.6,64.0,49.5,53.2,48.3,44.2,94,59,41,29.69,29.56,8,2,14,0.00
2013-6-16,78.4,63.4,51.8,61.1,54.9,45.1,99,76,49,29.68,29.50,5,2,8,0.12
2013-6-17,81.7,69.7,53.6,66.9,62.1,52.8,99,78,52,29.62,29.51,8,2,13,0.14
2013-6-19,75.7,60.9,43.2,56.3,49.0,42.6,99,69,41,29.93,29.73,5,2,8,0.00
2013-6-20,81.7,63.5,42.6,58.7,51.3,42.4,99,68,41,30.02,29.93,4,1,8,0.00
2013-6-21,84.0,65.3,49.6,62.2,55.7,49.4,99,75,45,30.01,29.97,5,1,8,0.00
2013-6-22,84.0,67.4,55.4,69.3,61.5,53.2,99,83,53,30.01,29.91,2,0,4,0.06
2013-6-23,83.1,69.3,63.0,74.1,67.2,62.1,99,94,74,29.92,29.77,4,1,6,0.59
2013-6-24,90.1,75.5,63.7,74.9,69.1,62.8,99,82,58,29.77,29.66,8,2,15,0.00
2013-6-25,93.0,82.5,69.3,74.7,70.5,61.1,89,68,53,29.69,29.56,8,2,11,0.00
2013-7-14,93.4,76.5,61.5,75.9,69.5,61.0,99,81,55,30.08,30.01,4,1,8,0.00
2013-7-15,93.7,80.0,65.3,76.9,70.5,65.0,99,75,51,30.01,29.92,4,1,7,0.00
2013-7-16,94.3,81.0,70.3,76.9,70.7,64.8,90,72,50,29.99,29.93,4,1,7,0.00
2013-7-17,94.5,78.6,63.1,77.9,70.4,62.3,99,78,54,29.99,29.79,5,1,9,0.17
2013-7-18,90.3,77.8,68.2,76.6,71.9,67.3,99,84,59,29.83,29.76,4,2,8,0.05
2013-7-19,94.3,79.9,68.7,79.7,73.3,67.2,99,82,57,29.77,29.49,10,3,16,0.02
2013-7-20,86.4,75.7,69.4,74.4,69.9,67.2,94,83,65,29.51,29.47,4,1,6,0.00
2013-7-21,80.8,69.7,59.0,67.1,62.2,57.0,98,78,61,29.82,29.63,6,1,8,0.00
2013-7-22,74.1,65.4,54.7,67.3,61.6,53.8,99,89,63,29.83,29.72,4,1,7,0.00
2013-7-23,72.7,65.4,57.2,69.8,64.2,56.9,99,96,84,29.70,29.36,4,0,6,1.15
2013-8-2,82.8,67.1,59.5,70.1,63.6,59.0,99,90,61,29.66,29.55,4,1,7,0.02
2013-8-3,77.9,64.2,54.0,64.4,58.5,53.1,99,83,57,29.62,29.53,8,1,11,0.01
2013-8-4,78.4,63.6,56.1,63.7,57.8,52.6,96,82,56,29.63,29.55,6,2,8,0.15
2013-8-5,73.8,60.9,51.6,56.6,51.6,46.0,94,73,46,29.81,29.62,8,3,15,0.00
2013-8-6,80.2,64.8,50.0,61.6,55.2,48.1,97,74,45,29.93,29.80,4,2,8,0.00
2013-8-7,80.1,64.7,48.0,66.2,58.0,47.8,99,80,60,29.95,29.89,8,2,11,0.00
2013-8-8,74.1,67.1,58.8,70.5,65.0,56.3,99,93,84,29.89,29.80,7,1,9,0.51
2013-9-11,93.7,74.3,61.2,78.4,68.8,60.6,99,85,58,29.83,29.72,6,1,8,0.37
2013-9-12,81.1,68.9,63.9,72.5,66.8,63.0,99,93,75,29.81,29.47,6,2,8,0.45
2013-9-13,67.3,61.8,54.3,64.7,60.6,53.2,99,96,86,29.53,29.41,4,1,6,0.37
2013-9-14,67.1,57.1,50.0,57.0,52.6,47.8,98,86,65,29.80,29.52,8,2,11,0.20
2013-9-15,72.3,57.1,43.7,56.8,49.8,42.9,99,79,54,29.87,29.77,5,2,9,0.00
2013-9-16,63.1,52.8,40.8,54.4,47.2,35.3,98,82,63,30.00,29.71,7,2,11,0.06
2013-9-17,69.1,60.0,37.2,50.9,45.2,34.0,92,60,45,30.14,30.00,8,2,13,0.00
2013-9-18,77.5,67.7,39.4,56.1,50.1,39.1,99,56,44,30.06,29.90,7,2,10,0.00
2013-9-19,80.8,72.6,46.4,61.3,55.8,45.2,96,57,46,29.89,29.81,7,2,11,0.00
2013-9-20,79.5,61.0,44.2,63.5,52.9,43.7,99,78,49,29.88,29.80,5,1,8,0.00
2013-9-21,71.6,58.8,50.2,60.8,55.6,49.1,99,90,64,29.80,29.52,8,3,11,0.00
2013-9-22,72.0,61.3,48.0,64.0,56.8,43.6,98,86,64,29.55,29.36,7,3,12,0.50
2013-9-23,52.7,47.4,43.0,43.8,41.1,38.2,90,79,68,29.72,29.55,10,4,21,0.00
2013-9-24,59.2,50.6,43.9,47.3,42.9,39.3,86,75,63,29.70,29.60,11,3,21,0.00
2013-9-25,60.4,50.7,42.1,50.6,45.2,40.8,99,82,66,29.68,29.64,7,2,12,0.00
2013-9-26,66.9,53.1,39.4,53.6,47.6,39.1,99,83,62,29.93,29.77,4,2,8,0.00
2013-9-27,74.5,66.1,51.3,58.7,54.4,48.9,94,67,54,30.00,29.92,6,1,8,0.00
2013-9-28,79.9,58.7,43.9,58.2,51.1,43.4,99,80,44,30.11,30.04,3,1,4,0.00
2013-9-29,74.3,56.4,40.5,58.8,50.0,40.2,99,82,53,30.03,29.88,4,1,7,0.00
2013-9-30,76.6,55.5,39.9,59.5,50.0,39.7,99,84,50,29.88,29.76,4,1,6,0.00
2013-10-1,81.7,66.3,42.3,60.8,54.9,42.0,99,70,42,29.76,29.63,9,1,11,0.00
2013-10-2,79.9,71.5,55.6,63.5,59.2,53.5,97,66,53,29.65,29.57,14,3,21,0.00
2013-10-3,76.8,62.6,50.9,54.9,48.9,44.8,83,62,45,29.84,29.69,4,2,9,0.00
2013-10-4,74.3,57.5,44.2,56.2,50.0,43.7,98,78,49,29.86,29.80,2,1,4,0.00
2013-10-5,64.4,55.5,47.8,50.7,46.9,42.9,92,74,56,29.92,29.85,4,1,6,0.00
2013-10-6,52.9,47.9,44.2,45.1,41.3,37.2,97,79,63,30.03,29.92,10,2,12,0.22
2013-10-7,65.1,53.4,45.9,64.8,53.0,45.1,99,98,92,29.93,29.51,9,2,18,0.66
2013-10-8,63.7,55.6,46.8,51.5,41.9,37.8,85,61,47,30.10,29.60,11,3,24,0.02
2013-10-9,68.2,53.3,32.0,47.9,42.6,31.8,99,70,47,30.22,30.14,6,2,8,0.00
2013-10-10,72.9,61.4,32.5,53.1,48.0,32.3,99,64,42,30.11,29.99,5,2,8,0.00
2013-10-17,72.5,56.1,46.2,57.2,49.7,45.0,99,81,52,29.66,29.52,4,1,7,0.00
2013-10-18,66.7,53.8,46.8,53.5,47.4,39.5,99,81,55,29.60,29.38,8,2,14,0.35
2013-10-19,65.7,53.5,46.0,48.6,43.2,37.9,93,69,47,29.67,29.51,6,2,11,0.00
2013-10-20,61.3,50.9,43.5,47.8,40.5,33.4,99,70,42,29.71,29.42,10,3,15,0.02
2013-10-21,63.5,50.5,42.1,44.5,40.4,34.6,83,69,49,29.82,29.71,7,2,9,0.00
2013-10-22,52.9,48.4,41.9,50.3,44.5,36.2,95,86,75,29.71,29.47,8,3,10,0.02
2013-10-23,57.0,41.5,34.0,37.2,32.5,28.8,85,71,48,29.50,29.40,4,2,8,0.00
2013-11-8,41.7,35.0,29.5,30.0,25.0,21.9,77,67,58,29.71,29.52,8,3,13,0.00
2013-11-9,45.0,34.4,30.2,28.9,23.0,20.3,95,63,51,29.85,29.71,13,3,18,0.00
2013-11-10,36.9,33.5,30.0,35.8,32.6,29.2,99,97,89,29.77,29.45,3,1,4,0.11
2013-11-11,48.0,37.4,33.8,34.1,29.5,26.1,91,73,55,29.75,29.50,8,3,15,0.00
2013-11-12,37.4,28.4,24.1,30.8,18.4,13.5,89,66,52,29.82,29.55,10,4,17,0.01
2013-11-13,33.6,24.5,17.8,16.1,12.0,8.3,69,59,45,29.92,29.77,8,3,19,0.00
2013-11-14,52.7,35.2,24.4,35.1,23.4,13.6,74,62,52,29.75,29.69,8,2,11,0.00
2013-11-15,53.6,38.6,26.6,34.7,27.3,22.7,92,66,38,29.91,29.78,4,1,6,0.00
2013-11-16,63.5,42.6,30.7,33.1,27.2,23.4,85,58,24,30.06,29.92,4,1,6,0.00
2013-11-17,41.4,36.0,27.7,41.1,35.0,25.9,99,96,85,30.07,29.67,4,1,6,0.24
2013-11-18,64.2,49.9,39.6,53.0,43.0,31.7,99,79,53,29.65,29.23,6,2,14,0.57
2013-11-19,43.2,31.9,27.1,31.8,20.5,15.2,75,63,52,29.94,29.32,8,4,17,0.08
2013-11-20,40.5,32.7,23.4,19.8,12.8,9.2,61,44,32,30.29,29.95,11,3,18,0.00
2013-11-21,50.5,33.7,17.2,24.1,11.9,7.8,71,42,23,30.33,30.14,4,1,8,0.00
2013-11-24,20.5,16.4,12.2,11.9,2.6,-2.6,70,54,44,29.74,29.42,13,6,27,0.64
2013-11-25,27.5,17.5,9.7,8.2,1.2,-4.3,58,49,28,29.96,29.75,10,3,15,0.00
2013-11-26,30.6,26.5,21.7,26.9,21.3,8.5,95,82,52,29.98,29.86,4,1,8,0.01
2013-11-27,45.0,35.8,28.0,44.2,35.0,26.8,99,97,81,29.84,28.99,8,2,17,1.64
2013-11-28,33.1,23.0,15.3,27.0,11.5,3.3,79,61,44,30.06,29.06,11,2,18,0.01
2013-11-29,28.8,17.1,12.4,10.6,4.4,2.5,67,58,39,30.41,30.06,4,2,8,0.00
2013-11-30,28.0,21.4,5.0,12.5,6.1,-1.7,80,52,35,30.45,30.24,10,3,15,0.00
2013-12-1,34.5,29.4,23.7,28.0,23.4,15.0,97,79,66,30.10,29.82,10,2,14,0.00
2013-12-2,33.1,31.4,28.6,32.8,31.1,27.8,99,99,97,29.81,29.67,2,0,3,0.14
2013-12-3,45.9,35.5,32.0,39.7,31.4,25.2,99,86,65,29.66,29.59,5,1,8,0.20
2013-12-4,42.1,32.6,27.9,28.8,23.2,19.5,76,68,58,29.91,29.62,6,3,14,0.00
2013-12-5,38.5,32.0,25.9,38.2,28.7,19.7,99,88,74,29.96,29.64,3,1,5,0.13
2013-12-6,43.5,38.3,34.5,43.0,33.1,25.3,99,82,63,29.78,29.61,9,2,15,0.28
2013-12-7,36.0,29.2,22.3,20.7,12.3,4.9,65,49,43,30.03,29.80,14,4,21,0.00
2013-12-8,28.4,20.6,15.6,8.8,4.9,1.2,62,50,39,30.24,30.09,8,2,13,0.00
2013-12-9,22.3,19.7,17.2,17.7,12.0,3.6,88,73,52,30.20,29.55,4,1,7,0.00
2013-12-10,33.1,26.4,21.0,25.8,15.2,11.1,89,63,52,29.57,29.45,8,2,11,0.00
2013-12-11,27.9,18.6,12.0,13.7,6.3,1.3,78,59,38,29.80,29.60,8,2,10,0.00
2013-12-12,19.0,9.4,5.5,2.0,-9.0,-13.5,61,43,23,29.91,29.79,7,2,11,0.00
2013-12-13,19.0,8.7,-1.7,3.3,-5.3,-17.5,67,53,41,30.03,29.55,10,3,13,0.00
2013-12-14,19.6,8.0,-4.4,-8.6,-16.9,-21.8,51,31,20,30.25,30.03,7,2,9,0.00
2013-12-15,19.8,12.4,4.5,15.6,6.0,-3.3,85,75,68,30.03,29.18,10,4,16,0.00
2013-12-16,23.5,17.0,10.9,9.1,1.8,-3.5,79,53,33,29.57,29.35,10,3,15,0.00
2013-12-25,23.4,8.8,0.3,5.2,-3.1,-12.8,72,58,45,30.19,29.87,0,0,0,0.00
2013-12-26,22.3,16.4,11.5,16.7,9.1,1.5,82,73,61,30.15,29.79,0,0,0,0.00
2013-12-27,35.1,23.6,17.8,21.0,15.0,11.8,82,70,51,29.88,29.81,0,0,0,0.00
2013-12-28,37.0,26.8,17.4,27.7,20.7,10.7,90,78,62,29.84,29.64,0,0,0,0.00
2013-12-29,38.5,31.7,27.5,31.9,28.3,23.6,95,87,74,29.73,29.31,3,0,4,0.01
2013-12-30,32.4,20.5,0.9,30.8,11.2,-16.9,96,69,42,29.85,29.28,0,0,0,0.00
2013-12-31,16.2,3.2,-2.4,-3.5,-10.5,-21.4,62,53,26,29.83,29.69,0,0,0,0.00
2014-1-1,19.8,11.0,5.7,-1.2,-4.6,-7.6,66,49,34,30.02,29.76,0,0,0,0.01
2014-1-2,3.7,-1.7,-5.8,-7.8,-14.3,-18.5,60,54,41,30.04,29.84,8,1,11,0.00